| time (UTC) | temp F | wind direction | speed MPH | gust MPH | rain 1hr in | rain 24hr in | rain mn in | humidity % | barometer mb |
| 20260901140516 | 0 | 0.0 | 0.0 | 0.00 | 0.00 | 0.00 | |||
| 20260901134853 | 88 | 3.0 | 0.0 | 0.00 | 0.00 | 0.00 | 38 | 1016.0 | |
| 20260901133354 | 88 | 3.0 | 0.0 | 0.00 | 0.00 | 0.00 | 38 | 1016.0 | |
| 20260901131902 | 88 | 3.0 | 0.0 | 0.00 | 0.00 | 0.00 | 38 | 1016.0 | |
| 20260901130353 | 88 | 3.0 | 0.0 | 0.00 | 0.00 | 0.00 | 38 | 1016.0 | |
| 20260901124900 | 84 | 260 | 11.0 | 0.0 | 0.00 | 0.00 | 0.00 | 40 | 1016.0 |
| 20260901123354 | 84 | 260 | 11.0 | 0.0 | 0.00 | 0.00 | 0.00 | 40 | 1016.0 |
| 20260901121853 | 84 | 260 | 11.0 | 0.0 | 0.00 | 0.00 | 0.00 | 40 | 1016.0 |
| 20260901120353 | 84 | 260 | 11.0 | 0.0 | 0.00 | 0.00 | 0.00 | 40 | 1016.0 |
| 20260901114854 | 84 | 230 | 14.0 | 0.0 | 0.00 | 0.00 | 0.00 | 37 | 1016.0 |
| 20260901113354 | 84 | 230 | 14.0 | 0.0 | 0.00 | 0.00 | 0.00 | 37 | 1016.0 |
| 20260901111854 | 84 | 230 | 14.0 | 0.0 | 0.00 | 0.00 | 0.00 | 37 | 1016.0 |
| 20260901110353 | 84 | 230 | 14.0 | 0.0 | 0.00 | 0.00 | 0.00 | 37 | 1016.0 |
| 20260901104854 | 82 | 230 | 14.0 | 0.0 | 0.00 | 0.00 | 0.00 | 32 | 1016.0 |
| 20260901103354 | 82 | 230 | 14.0 | 0.0 | 0.00 | 0.00 | 0.00 | 32 | 1016.0 |
| 20260901101957 | 0 | 0.0 | 0.0 | 0.00 | 0.00 | 0.00 | |||
| 20260901100355 | 82 | 230 | 14.0 | 0.0 | 0.00 | 0.00 | 0.00 | 32 | 1016.0 |
| 20260901094854 | 82 | 220 | 11.0 | 0.0 | 0.00 | 0.00 | 0.00 | 35 | 1017.0 |
| 20260901093353 | 82 | 220 | 11.0 | 0.0 | 0.00 | 0.00 | 0.00 | 35 | 1017.0 |
| 20260901091853 | 82 | 220 | 11.0 | 0.0 | 0.00 | 0.00 | 0.00 | 35 | 1017.0 |
| 20260901090354 | 82 | 220 | 11.0 | 0.0 | 0.00 | 0.00 | 0.00 | 35 | 1017.0 |
| 20260901084854 | 79 | 190 | 11.0 | 0.0 | 0.00 | 0.00 | 0.00 | 39 | 1017.0 |
| 20260901083403 | 79 | 190 | 11.0 | 0.0 | 0.00 | 0.00 | 0.00 | 39 | 1017.0 |
| 20260901081853 | 79 | 190 | 11.0 | 0.0 | 0.00 | 0.00 | 0.00 | 39 | 1017.0 |
| 20260901080355 | 79 | 190 | 11.0 | 0.0 | 0.00 | 0.00 | 0.00 | 39 | 1017.0 |
| 20260901074900 | 75 | 210 | 9.0 | 0.0 | 0.00 | 0.00 | 0.00 | 50 | 1017.0 |
| 20260901073354 | 75 | 210 | 9.0 | 0.0 | 0.00 | 0.00 | 0.00 | 50 | 1017.0 |
| 20260901071850 | 75 | 210 | 9.0 | 0.0 | 0.00 | 0.00 | 0.00 | 50 | 1017.0 |
| 20260901070353 | 75 | 210 | 9.0 | 0.0 | 0.00 | 0.00 | 0.00 | 50 | 1017.0 |
| 20260901064853 | 70 | 190 | 5.0 | 0.0 | 0.00 | 0.00 | 0.00 | 64 | 1017.0 |
| 20260901063354 | 70 | 190 | 5.0 | 0.0 | 0.00 | 0.00 | 0.00 | 64 | 1017.0 |
| 20260901061854 | 70 | 190 | 5.0 | 0.0 | 0.00 | 0.00 | 0.00 | 64 | 1017.0 |
| 20260901060354 | 70 | 190 | 5.0 | 0.0 | 0.00 | 0.00 | 0.00 | 64 | 1017.0 |
| 20260901054854 | 63 | 240 | 5.0 | 0.0 | 0.00 | 0.00 | 0.00 | 83 | 1017.0 |
| 20260901053353 | 63 | 240 | 5.0 | 0.0 | 0.00 | 0.00 | 0.00 | 83 | 1017.0 |
| 20260901051854 | 63 | 240 | 5.0 | 0.0 | 0.00 | 0.00 | 0.00 | 83 | 1017.0 |
| 20260901050354 | 63 | 240 | 5.0 | 0.0 | 0.00 | 0.00 | 0.00 | 83 | 1017.0 |
| 20260901044914 | 55 | 190 | 5.0 | 0.0 | 0.00 | 0.00 | 0.00 | 100 | 1016.0 |
| 20260901043354 | 55 | 190 | 5.0 | 0.0 | 0.00 | 0.00 | 0.00 | 100 | 1016.0 |
| 20260901041850 | 55 | 190 | 5.0 | 0.0 | 0.00 | 0.00 | 0.00 | 100 | 1016.0 |
| 20260901040353 | 55 | 190 | 5.0 | 0.0 | 0.00 | 0.00 | 0.00 | 100 | 1016.0 |
| 20260901034850 | 55 | 220 | 7.0 | 0.0 | 0.00 | 0.00 | 0.00 | 94 | 1016.0 |
| 20260901033353 | 55 | 220 | 7.0 | 0.0 | 0.00 | 0.00 | 0.00 | 94 | 1016.0 |
| 20260901031844 | 55 | 220 | 7.0 | 0.0 | 0.00 | 0.00 | 0.00 | 94 | 1016.0 |
| 20260901030353 | 55 | 220 | 7.0 | 0.0 | 0.00 | 0.00 | 0.00 | 94 | 1016.0 |
| 20260901024851 | 61 | 3.0 | 0.0 | 0.00 | 0.00 | 0.00 | 68 | 1017.0 | |
| 20260901023353 | 61 | 3.0 | 0.0 | 0.00 | 0.00 | 0.00 | 68 | 1017.0 | |
| 20260901021851 | 61 | 3.0 | 0.0 | 0.00 | 0.00 | 0.00 | 68 | 1017.0 | |
| 20260901020350 | 61 | 3.0 | 0.0 | 0.00 | 0.00 | 0.00 | 68 | 1017.0 | |
| 20260901014841 | 0 | 0.0 | 0.0 | 0.00 | 0.00 | 0.00 | |||
| 20260901013354 | 0 | 0.0 | 0.0 | 0.00 | 0.00 | 0.00 | |||
| 20260901011854 | 0 | 0.0 | 0.0 | 0.00 | 0.00 | 0.00 | |||
| 20260901010355 | 0 | 0.0 | 0.0 | 0.00 | 0.00 | 0.00 | |||
| 20260901004854 | 0 | 0.0 | 0.0 | 0.00 | 0.00 | 0.00 | |||
| 20260901003353 | 0 | 0.0 | 0.0 | 0.00 | 0.00 | 0.00 | |||
| 20260901001847 | 0 | 0.0 | 0.0 | 0.00 | 0.00 | 0.00 | |||
| 20260901000353 | 0 | 0.0 | 0.0 | 0.00 | 0.00 | 0.00 | |||
| 20260831234853 | 64 | 3.0 | 0.0 | 0.00 | 0.00 | 0.00 | 64 | 1017.0 | |
| 20260831233354 | 64 | 3.0 | 0.0 | 0.00 | 0.00 | 0.00 | 64 | 1017.0 | |
| 20260831231854 | 64 | 3.0 | 0.0 | 0.00 | 0.00 | 0.00 | 64 | 1017.0 | |
| 20260831230353 | 64 | 3.0 | 0.0 | 0.00 | 0.00 | 0.00 | 64 | 1017.0 | |
| 20260831224853 | 64 | 3.0 | 0.0 | 0.00 | 0.00 | 0.00 | 64 | 1017.0 | |
| 20260831223354 | 0 | 0.0 | 0.0 | 0.00 | 0.00 | 0.00 | |||
| 20260831221854 | 0 | 0.0 | 0.0 | 0.00 | 0.00 | 0.00 | |||
| 20260831220353 | 0 | 0.0 | 0.0 | 0.00 | 0.00 | 0.00 | |||
| 20260831214853 | 68 | 3.0 | 0.0 | 0.00 | 0.00 | 0.00 | 56 | 1017.0 | |
| 20260831213353 | 68 | 3.0 | 0.0 | 0.00 | 0.00 | 0.00 | 56 | 1017.0 | |
| 20260831211853 | 68 | 3.0 | 0.0 | 0.00 | 0.00 | 0.00 | 56 | 1017.0 | |
| 20260831210353 | 68 | 3.0 | 0.0 | 0.00 | 0.00 | 0.00 | 56 | 1017.0 | |
| 20260831204855 | 68 | 3.0 | 0.0 | 0.00 | 0.00 | 0.00 | 56 | 1017.0 | |
| 20260831203355 | 68 | 3.0 | 0.0 | 0.00 | 0.00 | 0.00 | 56 | 1017.0 | |
| 20260831201853 | 68 | 3.0 | 0.0 | 0.00 | 0.00 | 0.00 | 56 | 1017.0 | |
| 20260831200353 | 68 | 3.0 | 0.0 | 0.00 | 0.00 | 0.00 | 56 | 1017.0 | |
| 20260831194851 | 68 | 3.0 | 0.0 | 0.00 | 0.00 | 0.00 | 56 | 1017.0 | |
| 20260831193353 | 0 | 0.0 | 0.0 | 0.00 | 0.00 | 0.00 | |||
| 20260831191854 | 0 | 0.0 | 0.0 | 0.00 | 0.00 | 0.00 | |||
| 20260831190401 | 0 | 0.0 | 0.0 | 0.00 | 0.00 | 0.00 | |||
| 20260831184851 | 77 | 150 | 9.0 | 0.0 | 0.00 | 0.00 | 0.00 | 42 | 1017.0 |
| 20260831183353 | 77 | 150 | 9.0 | 0.0 | 0.00 | 0.00 | 0.00 | 42 | 1017.0 |
| 20260831181855 | 77 | 150 | 9.0 | 0.0 | 0.00 | 0.00 | 0.00 | 42 | 1017.0 |
| 20260831180354 | 77 | 150 | 9.0 | 0.0 | 0.00 | 0.00 | 0.00 | 42 | 1017.0 |
| 20260831174854 | 79 | 160 | 7.0 | 0.0 | 0.00 | 0.00 | 0.00 | 39 | 1016.0 |
| 20260831173354 | 79 | 160 | 7.0 | 0.0 | 0.00 | 0.00 | 0.00 | 39 | 1016.0 |
| 20260831171850 | 79 | 160 | 7.0 | 0.0 | 0.00 | 0.00 | 0.00 | 39 | 1016.0 |
| 20260831170355 | 0 | 0.0 | 0.0 | 0.00 | 0.00 | 0.00 | |||
| 20260831164853 | 86 | 170 | 9.0 | 0.0 | 0.00 | 0.00 | 0.00 | 29 | 1016.0 |
| 20260831163353 | 86 | 170 | 9.0 | 0.0 | 0.00 | 0.00 | 0.00 | 29 | 1016.0 |
| 20260831161853 | 86 | 170 | 9.0 | 0.0 | 0.00 | 0.00 | 0.00 | 29 | 1016.0 |
| 20260831160354 | 86 | 170 | 9.0 | 0.0 | 0.00 | 0.00 | 0.00 | 29 | 1016.0 |
| 20260831154853 | 88 | 210 | 9.0 | 0.0 | 0.00 | 0.00 | 0.00 | 31 | 1016.0 |
| 20260831153353 | 88 | 210 | 9.0 | 0.0 | 0.00 | 0.00 | 0.00 | 31 | 1016.0 |
| 20260831151854 | 88 | 210 | 9.0 | 0.0 | 0.00 | 0.00 | 0.00 | 31 | 1016.0 |
| 20260831150354 | 0 | 0.0 | 0.0 | 0.00 | 0.00 | 0.00 | |||
| 20260831144854 | 88 | 180 | 9.0 | 0.0 | 0.00 | 0.00 | 0.00 | 31 | 1016.0 |
| 20260831143354 | 88 | 180 | 9.0 | 0.0 | 0.00 | 0.00 | 0.00 | 31 | 1016.0 |
| 20260831141854 | 88 | 180 | 9.0 | 0.0 | 0.00 | 0.00 | 0.00 | 31 | 1016.0 |